Content
SEND FEEDBACK

Daily
Averages
Monthly
Summary
India

JAIPUR, INDIA


Home > Asia > India
Elevation: 1279 feet     Latitude: 26 49N     Longitude: 075 48E

WEATHER
 
SELECT A DAY
Number of Records: 97,964;   Date Range: 10/1/99 - 8/31/14
 
SHARE

PRINT THIS DATA

[ ← Previous Day ]
WEATHER ALMANAC - JANUARY 23, 2013
[ Next Day → ]
[ °C ]   °F
Weather ElementAverageHighLow
Temperature58.3 °F72 °F (2:30 am)44.6 °F (8:00 am)
Dewpoint36.4 °F70 °F (2:30 am)30.2 °F (3:00 pm)
Humidity45.2 %92 % (2:30 am)15 % (2:30 pm)
Barometer30.12 in30.21 in (11:00 am)29.94 in (2:30 am)
Wind Speed2.2 mph5.8 mph (1:00 pm)
Weather ElementAverage
Visibility1.7 mi
Wind DirectionENE (51.7 °)

Weather ElementTotal
Precipitation---
Heating Degree Days6.7 (Base 65)
Growing Degree Days8.3 (Base 50)
Averaged from 28 records on January 23, 2013
WEATHER CONDITIONS BREAKOUT
WIND DIRECTION BREAKOUT
WEATHER BY HOUR - JANUARY 23, 2013
[ °C ]   °F
Local TimeTemperatureDewpointHumidityBarometerVisibilityWind DirectionWind SpeedGust SpeedPrecipitationEventsConditions
1:00 AM50.0 °F33.8 °F54 %30.15 in1.2 miVariable2.3 mphSmoke
2:00 AM50.0 °F35.6 °F58 %30.12 in1.2 miCalmSmoke
2:30 AM72.0 °F70.0 °F92 %29.94 in2.0 miCalmScattered Clouds
3:00 AM46.4 °F35.6 °F66 %30.12 in1.2 miCalmSmoke
4:00 AM46.4 °F33.8 °F62 %30.12 in1.2 miCalmSmoke
5:00 AM48.2 °F35.6 °F62 %30.12 in1.2 miCalmSmoke
5:30 AM48.0 °F35.0 °F50 %30.15 in1.0 miCalmSmoke
6:00 AM46.4 °F33.8 °F62 %30.12 in1.2 miCalmSmoke
7:00 AM46.4 °F35.6 °F66 %30.15 in1.2 miCalmSmoke
8:00 AM44.6 °F35.6 °F71 %30.18 in1.2 miCalmSmoke
11:00 AM62.6 °F35.6 °F37 %30.21 in2.5 miVariable3.5 mphHaze
11:30 AM64.0 °F37.0 °F25 %30.17 in2.0 miSouth (180°)3.5 mphHaze
12:00 PM64.4 °F33.8 °F32 %30.18 in2.5 miVariable3.5 mphHaze
1:00 PM66.2 °F35.6 °F32 %30.15 in2.5 miSW (220°)5.8 mphHaze
2:00 PM68.0 °F32.0 °F26 %30.12 in2.5 miVariable5.8 mphHaze
2:30 PM71.0 °F34.0 °F15 %30.08 in1.0 miCalmHaze
3:00 PM69.8 °F30.2 °F23 %30.09 in2.5 miWNW (300°)4.6 mphHaze
4:00 PM69.8 °F30.2 °F23 %30.09 in2.5 miVariable4.6 mphHaze
5:00 PM69.8 °F30.2 °F23 %30.09 in3.1 miNW (310°)4.6 mphHaze
5:30 PM69.0 °F34.0 °F17 %30.07 in2.0 mi°2.3 mphHaze
6:00 PM64.4 °F33.8 °F32 %30.09 in2.5 miCalmHaze
8:00 PM60.8 °F39.2 °F45 %30.12 in1.2 miVariable3.5 mphSmoke
8:30 PM60.0 °F39.0 °F34 %30.11 in1.0 mi°3.5 mphSmoke
8:30 PM60.8 °F39.2 °F45 %30.12 in1.2 miVariable3.5 mphSmoke
9:00 PM53.6 °F35.6 °F51 %30.15 in1.2 miESE (110°)4.6 mphSmoke
10:00 PM57.2 °F39.2 °F51 %30.15 in1.2 miCalmSmoke
11:00 PM53.6 °F39.2 °F58 %30.15 in1.2 miVariable2.3 mphSmoke
11:30 PM50.0 °F38.0 °F53 %30.16 in1.0 miENE (70°)3.5 mphSmoke
Hourly data recorded from VIJP, located miles away from Jaipur, India







STORIES FROM OUR PARTNERS